User: anonymous   Login
Location: Santa Barbara
(34.4500°N, 119.7700°W)
Time: 21:24:33
(UTC-08:00)
Language:

Cosmos 1626 Rocket - Orbit

View from above orbital plane
View from above orbital plane
View from above satellite
View from above satellite

Ground track
Ground track

The orbit data is extracted from the following two-line orbital elements,

1 15495U 85009B   17056.76924815  .00000109  00000-0  10293-4 0  9996
2 15495  82.5241 291.8343 0019667 342.0778  17.9741 14.83754239733444
Epoch (UTC): 25 February 2017 18:27:43
Eccentricity: 0.0019667
inclination: 82.5241°
perigee height: 604 km
apogee height: 631 km
right ascension of ascending node: 291.8343°
argument of perigee: 342.0778°
revolutions per day: 14.83754239
mean anomaly at epoch: 17.9741°
orbit number at epoch: 73344

The dashed part of the orbit path shows where the satellite is in the earth's shadow,  

DLR